This is the latest recevied weather packets stored in our database for station/object K3JSE-4. If no packets are shown the sender has not sent any weather packets the latest 10 day(s).
| Time | Temp. | Humidity | Pressure | Rain* | Wind** | Luminosity | Snow |
|---|---|---|---|---|---|---|---|
| 1777739143 | 12.22° C | 47% | 1013.8 hPa | 0 mm | - | - | - |
| 1777738843 | 12.22° C | 54% | 1014 hPa | 0 mm | - | - | - |
| 1777738543 | 12.22° C | 54% | 1014.1 hPa | 0 mm | - | - | - |
| 1777738243 | 11.67° C | 51% | 1014.1 hPa | 0 mm | - | - | - |
| 1777737943 | 12.22° C | 50% | 1014.1 hPa | 0 mm | - | - | - |
| 1777737643 | 11.67° C | 56% | 1014.2 hPa | 0 mm | - | - | - |
| 1777737343 | 11.67° C | 55% | 1014.3 hPa | 0 mm | - | - | - |
| 1777737043 | 11.67° C | 53% | 1014.2 hPa | 0 mm | - | - | - |
| 1777736743 | 11.67° C | 54% | 1014.2 hPa | 0 mm | - | - | - |
| 1777736443 | 11.67° C | 52% | 1014.1 hPa | 0 mm | - | - | - |
| 1777736143 | 11.67° C | 55% | 1014 hPa | 0 mm | - | - | - |
| 1777735843 | 11.11° C | 57% | 1014.2 hPa | 0 mm | - | - | - |
| 1777735543 | 11.11° C | 56% | 1014.2 hPa | 0 mm | - | - | - |
| 1777735243 | 10.56° C | 56% | 1014.1 hPa | 0 mm | - | - | - |
| 1777734943 | 11.11° C | 54% | 1014.1 hPa | 0 mm | - | - | - |
| 1777734643 | 11.11° C | 54% | 1014.1 hPa | 0 mm | - | - | - |
| 1777734343 | 11.11° C | 58% | 1014.2 hPa | 0 mm | - | - | - |
| 1777734043 | 11.11° C | 55% | 1014.1 hPa | 0 mm | - | - | - |
| 1777733743 | 11.11° C | 57% | 1014.1 hPa | 0 mm | - | - | - |
| 1777733443 | 10.56° C | 61% | 1013.9 hPa | 0 mm | - | - | - |
| 1777733143 | 10° C | 58% | 1014 hPa | 0 mm | - | - | - |
| 1777732843 | 10° C | 60% | 1014 hPa | 0 mm | - | - | - |
| 1777732543 | 10° C | 59% | 1014 hPa | 0 mm | - | - | - |
| 1777732243 | 10° C | 58% | 1014 hPa | 0 mm | - | - | - |
| 1777731943 | 10° C | 61% | 1014 hPa | 0 mm | - | - | - |
* Rain latest hour (hover to see other rain measurements)
** Current wind speed in m/s (hover to see current wind gust speed)